Theta_e
288 288 288 288 286 286 288 286 285 285 285 285 285 284 284 283 281 281 280 280 279 279 278 279 279 279 278 277 277 277 276 277
287 287 286 286 284 284 284 284 284 285 285 284 284 283 283 281 281 280 280 279 279 279 279 278 278 278 277 277 276 276 276 276
285 285 284 283 283 283 283 284 284 284 284 284 283 282 281 281 280 280 280 279 279 279 278 278 277 277 277 276 276 276 276 276
284 284 284 284 284 283 283 284 283 283 283 282 282 282 281 280 280 280 279 278 278 278 277 277 277 276 276 276 276 275 275 275
285 284 285 285 284 283 284 284 284 283 283 282 282 282 281 280 280 279 279 278 278 278 277 277 276 276 276 276 275 275 275 275
285 285 285 285 284 284 284 284 284 283 282 282 282 282 281 280 280 279 278 278 278 277 276 276 275 276 275 276 275 275 275 275
287 286 285 284 284 284 284 283 283 283 282 282 281 281 281 280 279 279 278 277 277 277 276 274 275 280 281 277 275 276 275 274
287 287 286 285 285 283 284 283 283 283 283 282 282 281 281 280 280 279 278 278 277 276 275 275 275 281 283 282 276 275 275 275
289 288 287 286 285 284 283 283 283 283 283 282 282 281 281 280 279 279 278 277 277 276 276 275 275 281 283 283 277 276 275 274
291 289 288 286 285 284 282 283 283 282 283 282 282 282 280 280 279 279 278 277 276 277 275 275 275 281 283 282 276 275 274 274
288 286 285 285 284 283 282 282 282 283 283 283 283 283 281 281 280 280 279 278 277 276 275 275 274 279 282 282 275 271 273 273
287 286 285 284 284 283 282 282 283 284 283 282 283 283 283 282 281 280 278 277 275 274 273 272 272 272 281 282 276 274 271 271
285 284 284 284 284 283 282 283 284 283 282 282 282 282 282 281 280 277 276 274 272 270 269 271 271 273 278 281 282 280 271 270
282 281 281 281 282 280 278 278 278 279 279 279 279 279 279 278 274 270 272 273 272 271 272 272 270 270 278 278 281 281 278 276
279 278 276 275 277 277 277 277 277 277 274 273 275 271 271 273 273 273 272 272 272 269 270 265 267 268 269 271 273 277 278 278
278 277 274 274 273 270 273 274 273 271 270 270 270 270 268 269 270 272 267 272 267 267 266 265 264 267 272 271 267 267 271 271
272 274 270 272 270 269 268 272 272 270 269 269 269 268 268 267 264 275 274 276 277 276 268 263 273 276 277 278 278 279 279 273
273 272 271 270 267 265 265 267 268 269 268 266 267 266 265 263 266 265 267 277 277 278 279 279 274 277 278 278 279 280 279 274
270 267 266 264 261 260 259 263 263 262 265 264 263 263 263 262 261 261 261 261 260 269 272 273 273 273 274 275 274 262 262 261
264 262 262 261 258 258 258 263 262 264 262 261 260 260 261 261 260 259 259 257 256 258 265 264 269 269 269 269 255 253 253 253
Wind_Speed
12 12 12 12 9 10 12 13 12 12 12 12 12 10 10 10 10 9 7 8 8 7 6 7 6 7 7 5 4 5 3 3
11 10 10 9 9 9 10 10 11 12 11 12 11 10 10 10 10 10 9 10 9 9 8 7 7 7 7 6 6 6 5 3
12 12 11 11 11 11 10 11 11 11 11 12 11 11 11 11 10 10 11 8 9 8 7 7 7 6 7 7 6 6 5 6
11 13 14 14 14 13 12 12 11 10 11 9 11 12 13 12 12 10 10 9 7 8 8 8 7 7 6 6 6 6 5 6
13 13 14 14 15 14 13 12 12 12 12 13 13 13 13 12 12 11 10 10 9 8 7 7 7 6 6 6 6 5 5 5
16 14 15 15 15 15 14 14 13 14 13 13 11 10 10 10 11 10 10 9 8 8 6 7 7 6 7 7 6 6 5 5
16 17 18 19 18 16 17 16 15 15 13 11 10 10 10 10 10 10 10 8 8 8 8 8 6 14 16 10 6 6 6 6
20 19 17 19 18 19 17 14 14 13 11 11 11 12 11 10 10 11 12 9 9 8 8 9 7 17 16 16 6 6 6 5
15 16 17 15 15 14 14 15 15 14 13 12 12 12 11 11 11 10 9 11 9 10 10 8 8 17 18 17 6 6 6 5
13 12 13 15 14 14 15 15 15 16 15 14 13 12 12 13 12 9 9 8 10 8 9 10 8 19 18 15 6 7 8 7
11 8 14 14 15 16 15 14 16 15 13 12 13 14 14 13 12 10 8 11 8 9 9 9 9 18 18 16 5 6 5 5
12 13 14 14 15 14 13 15 13 10 11 13 14 14 13 12 9 11 10 7 8 8 6 8 9 9 19 20 5 6 5 7
9 7 7 11 13 12 14 8 11 12 12 12 12 10 10 13 10 8 9 8 7 6 4 5 6 11 16 19 20 13 7 7
8 8 6 6 7 7 4 8 8 9 9 9 8 8 8 10 8 5 6 7 7 7 8 5 3 4 15 18 20 21 14 7
9 8 6 4 6 5 7 7 9 8 7 5 7 6 4 4 5 6 7 7 6 5 6 2 3 4 4 5 7 15 14 15
7 7 6 5 6 4 5 7 6 5 5 5 4 5 5 2 4 5 1 5 4 4 4 4 4 5 10 9 5 5 8 6
6 8 5 6 6 5 3 4 6 5 4 4 4 3 4 4 2 4 5 9 9 7 6 2 9 9 9 11 13 14 16 7
6 6 7 7 7 5 5 4 5 5 5 4 4 4 4 3 4 4 3 4 6 7 8 9 7 7 7 8 11 12 11 5
7 7 6 7 6 5 4 4 5 4 5 4 4 4 3 3 3 3 4 4 0 6 6 7 8 8 9 11 10 5 6 2
8 6 6 6 4 5 4 5 5 4 3 3 4 3 4 4 4 3 3 3 2 2 5 8 9 8 8 9 3 1 2 2
Wind_Direction
171 173 176 174 167 161 165 164 161 159 163 164 163 156 150 148 146 147 144 138 138 131 140 140 133 125 112 110 118 112 114 107
175 174 170 163 164 160 158 153 158 163 163 160 160 152 147 149 152 155 148 148 147 158 157 148 137 128 125 134 142 134 136 140
173 165 165 167 167 171 168 165 168 164 160 164 155 152 153 157 160 158 156 153 155 158 157 147 134 137 148 158 159 160 168 168
171 179 179 176 176 176 174 170 164 159 158 156 161 162 165 165 164 161 153 158 156 164 164 155 150 153 166 168 170 177 184 184
186 186 183 182 180 178 176 172 167 164 169 171 171 173 173 166 164 163 162 161 171 175 160 156 156 161 171 171 176 191 200 200
192 187 185 184 183 181 178 172 172 174 178 182 175 171 163 165 167 160 162 170 171 159 164 157 166 172 178 181 187 195 209 221
194 188 190 186 184 180 179 178 173 181 183 172 170 168 169 168 167 164 169 167 168 177 174 172 185 194 197 186 184 197 213 221
198 196 191 190 181 183 177 165 174 177 172 172 174 176 175 169 172 178 180 171 181 182 182 194 195 203 203 204 195 203 211 211
196 196 193 181 179 169 164 166 171 178 178 173 177 180 174 175 184 182 174 183 185 192 198 198 208 210 211 211 192 207 216 209
193 179 169 171 166 160 162 167 176 185 184 181 176 177 179 184 185 184 179 187 195 194 194 200 210 214 215 215 194 213 221 216
154 140 157 164 155 160 171 178 187 187 183 172 177 186 188 188 183 189 194 207 194 200 199 202 215 216 218 220 181 210 222 224
144 157 163 157 158 167 167 191 184 155 165 180 186 187 188 183 185 191 192 185 191 203 200 207 207 212 224 229 192 214 215 228
124 125 137 151 157 164 182 166 164 170 172 173 179 181 177 182 184 185 183 188 200 204 222 221 208 207 231 234 235 224 216 226
104 104 83 101 124 137 147 133 135 148 171 175 166 171 168 173 167 152 174 194 209 209 228 229 172 190 231 234 241 245 249 237
115 113 106 84 88 118 141 137 148 161 157 145 159 153 143 131 153 171 186 200 206 201 223 159 167 201 210 236 251 261 253 255
116 113 108 99 86 65 122 131 137 126 135 140 134 152 145 125 168 184 218 184 183 203 165 175 220 219 229 222 217 226 241 261
86 112 120 109 97 73 71 120 129 123 134 149 146 146 149 150 86 202 184 206 216 204 184 240 240 248 245 251 253 251 242 232
121 110 110 97 81 33 32 98 127 142 150 146 144 150 149 137 155 156 343 211 202 222 237 228 221 258 298 301 287 290 297 298
91 79 82 85 69 359 1 93 106 109 119 132 127 125 117 127 131 127 151 157 78 38 56 40 22 2 338 317 328 17 0 7
86 85 93 92 38 353 19 81 90 91 83 100 101 106 117 115 111 118 117 117 122 23 45 24 18 3 352 346 83 353 338 296